| time (UTC) | temp F | wind direction | speed knots | gust knots | rain 1hr in | rain 24hr in | rain mn in | humidity % | barometer mb |
| 20260906040031 | 57 | 248 | 0.0 | 0.0 | 0.00 | 0.00 | 0.01 | 84 | 1016.3 |
| 20260906034526 | 57 | 348 | 0.0 | 0.0 | 0.00 | 0.00 | 0.01 | 84 | 1016.2 |
| 20260906033017 | 57 | 318 | 0.0 | 0.0 | 0.00 | 0.00 | 0.01 | 83 | 1015.8 |
| 20260906031517 | 57 | 18 | 0.0 | 0.0 | 0.00 | 0.00 | 0.01 | 83 | 1015.9 |
| 20260906030014 | 57 | 327 | 0.0 | 0.0 | 0.00 | 0.00 | 0.01 | 83 | 1015.5 |
| 20260906024516 | 58 | 303 | 0.0 | 0.0 | 0.00 | 0.00 | 0.01 | 83 | 1015.3 |
| 20260906023011 | 58 | 275 | 0.9 | 0.0 | 0.00 | 0.00 | 0.01 | 83 | 1015.2 |
| 20260906021511 | 58 | 15 | 0.0 | 0.0 | 0.00 | 0.00 | 0.01 | 83 | 1015.1 |
| 20260906020017 | 58 | 328 | 0.9 | 0.0 | 0.00 | 0.00 | 0.01 | 83 | 1014.8 |
| 20260906014510 | 58 | 292 | 0.9 | 0.0 | 0.00 | 0.00 | 0.00 | 83 | 1014.9 |
| 20260906013007 | 58 | 317 | 0.9 | 0.0 | 0.00 | 0.00 | 0.00 | 83 | 1014.7 |
| 20260906011507 | 58 | 281 | 0.0 | 0.0 | 0.00 | 0.00 | 0.00 | 83 | 1014.6 |
| 20260906010006 | 58 | 355 | 0.9 | 0.0 | 0.00 | 0.00 | 0.00 | 83 | 1014.5 |
| 20260906004504 | 58 | 246 | 0.9 | 0.0 | 0.00 | 0.00 | 0.00 | 83 | 1014.3 |
| 20260906003003 | 58 | 238 | 0.9 | 0.0 | 0.00 | 0.00 | 0.00 | 83 | 1014.0 |
| 20260906001501 | 58 | 259 | 0.9 | 0.0 | 0.00 | 0.00 | 0.00 | 83 | 1013.8 |
| 20260906000108 | 58 | 253 | 0.0 | 0.0 | 0.00 | 0.00 | 0.00 | 82 | 1013.6 |
| 20260905234620 | 58 | 257 | 0.9 | 0.0 | 0.00 | 0.00 | 0.00 | 82 | 1013.5 |
| 20260905233055 | 59 | 246 | 0.0 | 0.0 | 0.00 | 0.00 | 0.00 | 81 | 1013.2 |
| 20260905231555 | 59 | 286 | 0.9 | 0.0 | 0.00 | 0.00 | 0.00 | 81 | 1013.1 |
| 20260905224552 | 59 | 307 | 0.9 | 0.0 | 0.00 | 0.00 | 0.00 | 80 | 1012.9 |
| 20260905223052 | 59 | 232 | 0.9 | 0.0 | 0.00 | 0.00 | 0.00 | 80 | 1012.6 |
| 20260905221551 | 59 | 28 | 0.9 | 0.0 | 0.00 | 0.00 | 0.00 | 80 | 1012.4 |
| 20260905220045 | 59 | 248 | 0.0 | 0.0 | 0.00 | 0.00 | 0.00 | 80 | 1012.2 |
| 20260905214543 | 59 | 340 | 0.9 | 0.0 | 0.00 | 0.00 | 0.03 | 80 | 1012.0 |
| 20260905213041 | 59 | 277 | 0.9 | 0.0 | 0.00 | 0.00 | 0.03 | 79 | 1011.6 |
| 20260905211541 | 59 | 253 | 0.9 | 0.0 | 0.00 | 0.00 | 0.03 | 79 | 1011.7 |
| 20260905210053 | 59 | 279 | 0.9 | 0.0 | 0.00 | 0.00 | 0.03 | 79 | 1011.3 |
| 20260905204539 | 59 | 226 | 0.9 | 0.0 | 0.00 | 0.00 | 0.03 | 79 | 1011.1 |
| 20260905203051 | 59 | 236 | 1.7 | 0.0 | 0.00 | 0.00 | 0.03 | 79 | 1011.0 |
| 20260905201537 | 59 | 246 | 0.9 | 0.0 | 0.00 | 0.00 | 0.03 | 80 | 1010.8 |
| 20260905200036 | 59 | 271 | 0.9 | 0.0 | 0.00 | 0.00 | 0.03 | 79 | 1010.7 |
| 20260905194532 | 59 | 283 | 1.7 | 0.0 | 0.00 | 0.00 | 0.03 | 79 | 1010.5 |
| 20260905193034 | 59 | 289 | 0.9 | 0.0 | 0.00 | 0.00 | 0.03 | 79 | 1010.4 |
| 20260905191535 | 59 | 279 | 1.7 | 0.0 | 0.00 | 0.00 | 0.03 | 79 | 1010.1 |
| 20260905190029 | 59 | 253 | 1.7 | 0.0 | 0.00 | 0.00 | 0.03 | 79 | 1010.1 |
| 20260905184528 | 59 | 264 | 0.9 | 0.0 | 0.00 | 0.00 | 0.03 | 79 | 1009.9 |
| 20260905183025 | 59 | 286 | 1.7 | 0.0 | 0.00 | 0.00 | 0.03 | 79 | 1009.8 |
| 20260905181527 | 59 | 298 | 1.7 | 0.0 | 0.00 | 0.00 | 0.02 | 78 | 1009.6 |
| 20260905180023 | 60 | 265 | 0.9 | 0.0 | 0.00 | 0.00 | 0.02 | 78 | 1009.5 |
| 20260905174523 | 60 | 233 | 1.7 | 0.0 | 0.00 | 0.00 | 0.02 | 76 | 1009.0 |
| 20260905173021 | 61 | 267 | 0.9 | 0.0 | 0.00 | 0.00 | 0.02 | 74 | 1008.9 |
| 20260905171528 | 61 | 219 | 0.9 | 0.0 | 0.00 | 0.00 | 0.02 | 74 | 1008.7 |
| 20260905170022 | 61 | 219 | 0.9 | 0.0 | 0.00 | 0.00 | 0.02 | 73 | 1008.7 |
| 20260905164517 | 62 | 222 | 1.7 | 0.0 | 0.00 | 0.00 | 0.02 | 74 | 1008.6 |
| 20260905163021 | 62 | 189 | 0.9 | 0.0 | 0.00 | 0.00 | 0.02 | 73 | 1008.5 |
| 20260905161514 | 63 | 281 | 0.9 | 0.0 | 0.00 | 0.00 | 0.02 | 72 | 1008.2 |
| 20260905160013 | 63 | 166 | 0.9 | 0.0 | 0.00 | 0.00 | 0.02 | 71 | 1008.0 |
| 20260905154512 | 64 | 225 | 1.7 | 0.0 | 0.00 | 0.00 | 0.02 | 71 | 1007.9 |
| 20260905153014 | 64 | 220 | 1.7 | 0.0 | 0.00 | 0.00 | 0.02 | 73 | 1007.8 |
| 20260905151511 | 64 | 274 | 0.9 | 0.0 | 0.00 | 0.00 | 0.02 | 71 | 1007.7 |
| 20260905150009 | 65 | 223 | 1.7 | 0.0 | 0.00 | 0.00 | 0.02 | 70 | 1007.6 |
| 20260905144506 | 66 | 205 | 1.7 | 0.0 | 0.00 | 0.00 | 0.02 | 69 | 1007.3 |
| 20260905143006 | 66 | 296 | 1.7 | 0.0 | 0.00 | 0.00 | 0.02 | 71 | 1007.3 |
| 20260905141506 | 66 | 227 | 1.7 | 0.0 | 0.00 | 0.00 | 0.02 | 73 | 1007.2 |
| 20260905140006 | 65 | 237 | 0.9 | 0.0 | 0.00 | 0.00 | 0.02 | 73 | 1007.2 |
| 20260905134505 | 64 | 259 | 0.9 | 0.0 | 0.00 | 0.00 | 0.02 | 74 | 1007.1 |
| 20260905133006 | 63 | 259 | 0.9 | 0.0 | 0.00 | 0.00 | 0.02 | 78 | 1007.0 |
| 20260905131506 | 63 | 232 | 0.9 | 0.0 | 0.00 | 0.00 | 0.02 | 75 | 1006.9 |
| 20260905130003 | 66 | 234 | 1.7 | 0.0 | 0.00 | 0.00 | 0.02 | 71 | 1007.0 |
| 20260905124600 | 66 | 260 | 1.7 | 0.0 | 0.00 | 0.00 | 0.02 | 73 | 1006.7 |
| 20260905123101 | 65 | 211 | 0.9 | 0.0 | 0.00 | 0.00 | 0.02 | 75 | 1006.6 |
| 20260905121557 | 65 | 233 | 0.9 | 0.0 | 0.00 | 0.00 | 0.02 | 74 | 1006.3 |
| 20260905120057 | 66 | 240 | 1.7 | 0.0 | 0.00 | 0.00 | 0.02 | 74 | 1006.3 |
| 20260905114605 | 65 | 246 | 1.7 | 0.0 | 0.00 | 0.00 | 0.02 | 75 | 1006.1 |
| 20260905113052 | 65 | 237 | 0.9 | 0.0 | 0.00 | 0.00 | 0.02 | 77 | 1006.1 |
| 20260905111622 | 64 | 237 | 0.9 | 0.0 | 0.00 | 0.00 | 0.02 | 76 | 1005.9 |
| 20260905110056 | 64 | 265 | 0.9 | 0.0 | 0.00 | 0.00 | 0.02 | 77 | 1005.8 |
| 20260905104608 | 64 | 234 | 1.7 | 0.0 | 0.00 | 0.00 | 0.02 | 74 | 1005.7 |
| 20260905103048 | 64 | 250 | 0.9 | 0.0 | 0.00 | 0.00 | 0.02 | 75 | 1005.7 |
| 20260905101551 | 64 | 236 | 0.9 | 0.0 | 0.00 | 0.00 | 0.02 | 75 | 1005.4 |
| 20260905100046 | 64 | 277 | 1.7 | 0.0 | 0.00 | 0.00 | 0.02 | 76 | 1005.4 |
| 20260905094641 | 63 | 231 | 0.9 | 0.0 | 0.00 | 0.00 | 0.02 | 76 | 1005.4 |
| 20260905093042 | 64 | 232 | 2.6 | 0.0 | 0.00 | 0.00 | 0.02 | 73 | 1005.3 |
| 20260905091547 | 63 | 277 | 0.9 | 0.0 | 0.00 | 0.00 | 0.02 | 74 | 1005.0 |
| 20260905090040 | 63 | 282 | 0.9 | 0.0 | 0.00 | 0.00 | 0.02 | 77 | 1005.0 |
| 20260905084549 | 62 | 246 | 1.7 | 0.0 | 0.00 | 0.00 | 0.02 | 79 | 1004.9 |
| 20260905083033 | 62 | 210 | 1.7 | 0.0 | 0.00 | 0.00 | 0.02 | 79 | 1004.7 |
| 20260905081532 | 61 | 209 | 1.7 | 0.0 | 0.00 | 0.00 | 0.02 | 80 | 1004.6 |
| 20260905080031 | 61 | 227 | 0.9 | 0.0 | 0.00 | 0.00 | 0.02 | 81 | 1004.6 |
| 20260905074529 | 61 | 242 | 0.9 | 0.0 | 0.00 | 0.00 | 0.02 | 82 | 1004.3 |
| 20260905073026 | 60 | 229 | 0.9 | 0.0 | 0.00 | 0.00 | 0.02 | 83 | 1004.3 |
| 20260905071526 | 60 | 222 | 0.9 | 0.0 | 0.00 | 0.00 | 0.02 | 83 | 1004.3 |
| 20260905070024 | 60 | 215 | 0.9 | 0.0 | 0.00 | 0.00 | 0.02 | 83 | 1004.2 |
| 20260905064522 | 60 | 234 | 0.9 | 0.0 | 0.00 | 0.00 | 0.02 | 84 | 1004.1 |
| 20260905063021 | 59 | 215 | 0.9 | 0.0 | 0.00 | 0.00 | 0.02 | 85 | 1004.1 |
| 20260905061528 | 59 | 243 | 0.9 | 0.0 | 0.00 | 0.00 | 0.02 | 85 | 1004.0 |
| 20260905060027 | 58 | 230 | 0.0 | 0.0 | 0.00 | 0.00 | 0.02 | 86 | 1003.7 |
| 20260905054522 | 58 | 234 | 0.9 | 0.0 | 0.00 | 0.00 | 0.01 | 86 | 1003.6 |
| 20260905053015 | 58 | 273 | 0.0 | 0.0 | 0.00 | 0.00 | 0.01 | 86 | 1003.6 |
| 20260905051527 | 58 | 245 | 0.9 | 0.0 | 0.00 | 0.00 | 0.01 | 86 | 1003.5 |
| 20260905050014 | 58 | 257 | 0.0 | 0.0 | 0.00 | 0.00 | 0.01 | 86 | 1003.3 |
| 20260905044511 | 58 | 236 | 0.0 | 0.0 | 0.00 | 0.00 | 0.01 | 85 | 1003.0 |
| 20260905043014 | 58 | 252 | 0.9 | 0.0 | 0.00 | 0.00 | 0.01 | 85 | 1002.8 |
| 20260905041510 | 58 | 196 | 0.9 | 0.0 | 0.00 | 0.00 | 0.01 | 86 | 1002.7 |